Theta_e
337 337 337 338 338 337 336 335 334 333 333 332 332 331 330 329 329 328 326 324 323 325 326 326 324 322 321 320 320 319 319 318 318 317 316 315 314 313 313 312 312 311 310 310 310 310 310 310 310 310 310 310 309 309 309 309 309 309 310 311 311 310 311 312 312 312 311 309 308 308 307 307 306 305 305 306 306 306 306 305 306 306 305 305 305
336 337 337 337 338 337 336 335 334 334 333 332 330 329 328 328 328 327 325 322 323 325 326 325 323 321 320 320 319 319 318 317 317 316 315 314 313 313 312 311 311 310 310 310 309 310 310 310 309 309 309 309 309 309 308 308 309 310 310 310 311 310 310 311 311 311 310 309 308 307 306 306 306 305 305 305 306 306 305 305 305 305 305 305 305
335 337 337 336 337 337 336 335 334 333 332 331 329 328 327 326 326 325 323 322 323 325 325 323 322 321 320 319 319 318 317 317 316 315 313 313 313 312 311 311 310 310 309 309 309 309 310 310 309 309 309 308 308 308 309 309 309 310 310 310 310 310 310 310 311 310 309 309 308 306 306 306 305 305 305 305 305 305 305 305 305 305 305 304 304
335 336 336 335 336 336 335 334 333 332 331 329 328 327 326 325 325 323 322 322 323 324 324 322 321 320 319 319 318 317 316 316 315 313 312 312 311 311 310 310 309 309 309 309 309 309 310 309 309 309 308 308 308 308 308 309 309 309 310 310 310 310 310 310 310 310 309 308 307 306 306 305 305 305 304 304 305 305 305 305 305 304 304 304 304
335 336 336 334 335 335 333 333 332 330 329 328 327 326 325 324 323 322 322 322 323 323 323 322 320 319 319 318 317 316 316 314 313 312 311 311 310 310 310 310 309 309 309 309 309 309 308 308 308 308 308 308 309 308 308 308 309 309 309 309 310 310 310 310 309 308 308 307 307 306 306 305 305 305 304 304 305 304 304 304 304 304 304 304 304
335 336 335 334 334 333 332 331 330 328 327 326 325 324 323 322 321 321 322 322 322 323 323 321 320 319 318 317 316 315 314 312 311 311 310 310 310 310 310 310 309 309 309 308 308 308 308 308 308 307 307 308 308 308 308 307 308 309 309 309 310 310 310 310 309 308 307 307 306 306 305 304 304 304 303 303 304 304 304 304 304 303 303 303 304
335 334 334 334 332 331 331 330 328 326 325 324 324 323 322 321 321 321 322 321 320 322 322 320 319 318 317 315 315 314 312 311 310 310 310 309 310 310 309 309 309 308 308 308 307 307 306 306 305 304 304 304 305 306 307 307 307 308 309 309 310 310 310 309 308 307 306 306 306 305 304 304 303 303 302 303 303 303 304 304 304 303 303 303 303
334 334 334 333 331 330 330 329 327 325 324 323 323 322 321 321 321 321 320 320 320 321 320 319 318 317 315 314 314 313 311 310 310 309 309 309 309 309 309 309 309 308 308 307 306 305 304 303 301 299 299 300 301 303 305 306 307 307 308 309 309 309 309 308 308 306 305 305 305 304 304 303 302 302 302 302 303 303 303 304 304 303 303 303 303
334 334 334 332 330 330 329 328 326 325 323 322 322 321 320 320 320 320 319 320 321 320 319 318 316 315 314 314 312 311 310 309 309 308 308 309 309 308 308 308 308 308 307 306 306 304 302 300 297 296 297 299 299 300 301 302 303 303 304 306 308 309 308 308 307 306 305 304 304 304 304 303 302 301 301 302 303 303 303 303 303 303 303 303 303
334 334 333 330 329 328 327 326 325 324 323 322 320 320 320 320 320 320 319 319 320 319 317 316 315 314 313 312 311 310 309 308 308 307 307 308 308 308 307 307 307 307 306 305 304 302 301 299 297 296 297 298 299 299 299 298 298 298 299 301 305 308 308 307 306 306 305 304 303 303 303 303 301 300 300 301 302 303 304 303 303 303 303 303 303
332 332 331 329 327 326 325 324 324 323 322 321 320 320 320 320 320 319 318 318 319 318 316 315 314 313 312 311 310 310 308 307 306 306 306 307 307 307 307 307 306 306 305 304 303 302 302 302 302 301 299 298 298 298 298 298 298 298 297 296 298 302 305 307 307 305 305 303 302 302 302 302 301 300 300 300 302 303 304 303 303 303 303 304 304
331 330 329 326 325 323 323 323 322 321 320 320 319 319 319 319 318 318 318 317 317 316 315 314 313 312 311 311 310 309 306 305 305 305 305 306 306 306 306 306 306 306 305 305 304 304 305 305 305 305 303 301 301 301 301 301 301 301 299 296 295 296 299 302 305 305 304 303 302 301 301 301 300 300 299 300 301 302 303 304 303 303 303 303 303
329 328 326 324 323 323 321 321 322 320 319 318 318 319 318 318 317 317 316 316 315 315 314 313 312 311 311 310 308 306 304 304 304 304 305 305 306 306 306 305 305 305 305 305 305 305 305 304 304 304 304 303 304 304 304 304 303 303 303 301 298 297 297 299 301 303 303 303 302 300 300 300 300 299 299 300 301 302 303 304 303 302 303 303 302
327 326 324 323 323 322 321 320 320 319 317 317 317 317 317 316 316 316 315 315 315 314 313 312 310 310 308 307 306 304 303 303 303 304 304 304 305 306 306 305 305 305 305 305 305 304 304 304 303 303 304 304 305 305 305 305 305 305 305 303 301 299 298 299 300 301 301 301 301 300 300 300 300 300 300 299 300 301 303 303 302 302 302 302 301
326 325 324 323 322 321 319 319 318 317 316 316 316 316 316 315 315 315 315 314 314 313 312 310 309 308 306 305 304 303 302 302 303 303 303 304 304 305 305 305 305 305 305 304 304 304 303 303 301 301 302 303 303 304 305 306 306 306 306 304 302 300 297 297 298 299 299 299 299 299 300 300 300 300 299 298 298 300 302 303 302 301 302 301 300
325 324 323 322 321 319 317 317 317 316 316 316 316 316 316 315 315 315 315 314 313 312 310 309 308 307 305 304 303 302 301 301 302 302 302 303 304 305 304 304 304 304 304 304 303 303 302 302 300 300 300 301 301 302 303 304 305 305 305 305 304 303 301 299 299 299 299 299 299 300 300 300 299 299 299 298 297 298 301 303 301 301 302 301 301
325 323 321 321 319 318 317 317 316 315 316 316 316 315 315 315 315 315 314 314 312 311 309 308 307 306 305 304 302 300 300 300 301 301 302 303 304 304 304 303 303 304 304 304 303 303 302 301 299 299 298 299 300 301 302 304 304 304 304 304 304 304 304 302 302 302 301 301 301 301 301 300 300 300 299 298 297 298 300 301 301 301 302 301 301
324 323 321 320 319 317 317 317 316 315 316 316 316 316 316 315 315 314 314 313 312 310 309 308 307 306 305 303 301 300 299 299 300 301 302 303 304 304 303 303 304 303 303 303 303 302 301 299 299 299 297 297 299 300 301 303 304 304 303 303 303 303 303 302 301 302 303 303 302 302 302 301 300 301 300 298 297 298 300 300 300 301 302 301 301
324 322 321 320 319 317 316 316 316 316 316 317 317 316 316 315 314 314 313 312 311 309 308 308 307 306 304 302 301 300 298 298 299 301 302 303 304 304 303 303 304 303 301 300 300 300 299 299 298 297 295 295 297 300 302 303 304 303 302 302 301 301 302 302 301 301 303 303 302 302 302 300 300 301 300 298 298 299 300 299 299 301 301 300 301
324 322 321 320 318 317 316 316 316 317 317 317 317 316 315 314 314 313 313 312 310 309 308 308 307 306 304 302 301 301 299 297 299 301 302 302 303 304 303 303 303 302 301 299 299 298 298 297 296 293 292 293 295 298 300 301 302 301 301 301 299 298 300 302 302 301 302 302 301 301 301 300 300 300 299 298 299 300 299 299 299 300 300 300 300
323 322 320 319 318 317 317 317 317 318 317 317 316 315 314 314 313 313 313 311 310 309 308 307 307 305 304 303 302 301 299 298 299 301 301 301 302 303 303 303 302 302 301 300 300 299 298 297 294 292 292 292 292 294 296 298 299 299 297 296 296 296 298 300 301 301 301 301 300 300 300 299 299 299 298 299 300 300 299 298 299 300 299 299 300
322 321 319 318 318 317 318 318 318 318 317 316 315 314 314 313 313 313 312 311 309 308 307 307 306 305 304 303 303 301 299 298 299 300 301 300 300 302 303 303 302 302 302 302 302 301 300 299 295 292 292 292 292 292 292 294 296 295 293 292 295 297 298 299 300 301 301 300 300 300 300 299 299 299 299 299 299 299 299 298 298 299 299 299 300
322 321 320 319 318 318 318 319 318 317 316 315 315 314 314 313 313 312 311 310 308 308 307 307 306 305 304 304 303 302 300 299 298 298 300 299 299 301 302 302 302 303 303 303 303 302 301 299 294 291 291 292 291 291 292 294 294 293 291 294 296 298 299 300 300 300 300 300 299 300 300 299 299 299 299 299 299 299 299 298 298 298 298 299 299
321 321 320 319 319 318 318 318 317 316 315 314 314 314 313 313 312 312 310 309 308 307 307 307 306 305 305 305 304 302 301 299 297 297 298 298 299 300 301 301 302 303 303 303 303 302 301 298 293 291 291 291 291 291 291 292 293 292 293 296 298 298 299 300 300 300 300 299 299 299 299 299 299 299 299 299 299 299 299 298 298 298 298 298 299
321 320 319 319 318 318 318 317 316 315 314 314 314 313 313 313 312 310 309 308 307 307 307 307 306 305 305 306 304 302 301 300 297 297 297 298 298 299 300 301 301 302 303 303 302 302 301 296 292 291 292 292 293 295 294 292 292 293 295 297 298 299 299 299 299 300 300 299 299 299 299 299 299 299 299 299 299 299 299 298 298 299 299 299 299
320 319 319 318 318 318 317 316 315 315 314 314 313 313 312 312 311 310 309 308 307 307 306 306 305 305 306 306 304 302 301 300 298 297 296 297 297 297 298 300 301 301 301 302 301 301 299 295 291 291 293 294 297 299 298 295 294 295 297 298 299 299 298 298 299 300 299 299 299 299 299 299 299 299 299 299 299 299 299 299 299 299 299 299 299
320 319 319 318 318 318 316 315 314 314 313 313 312 312 311 311 310 310 309 308 308 307 306 305 305 305 305 305 303 302 301 300 299 298 297 297 297 296 297 298 299 300 300 300 299 298 295 292 291 291 293 294 296 297 297 296 296 298 299 299 299 298 297 298 299 299 299 298 299 299 299 299 299 299 299 299 299 300 299 299 299 299 299 299 300
320 319 318 317 317 316 315 313 313 313 312 312 312 311 311 311 310 310 310 309 307 306 305 305 305 306 306 305 303 303 302 301 300 298 298 299 298 297 297 298 298 299 299 298 297 296 294 292 293 293 294 295 296 296 297 298 299 299 299 299 300 299 298 299 299 299 299 299 299 299 299 300 300 300 300 300 300 300 300 299 299 300 299 299 300
319 319 318 317 316 315 314 313 313 313 313 312 312 311 311 311 310 310 310 309 308 306 305 305 306 306 306 305 304 303 303 302 300 299 299 299 298 298 298 298 298 299 299 299 299 298 296 296 297 298 299 299 299 300 300 300 300 300 299 298 299 299 299 299 300 299 299 299 299 299 299 300 300 300 300 300 300 300 300 299 299 300 299 300 300
319 318 317 316 316 315 314 313 314 313 313 312 311 311 311 310 310 310 309 308 307 307 306 306 307 307 306 306 305 304 303 302 300 299 299 299 299 299 299 299 299 300 301 300 300 300 299 300 301 301 301 301 301 301 301 300 300 300 299 299 299 298 299 299 299 299 299 299 299 299 299 300 300 300 300 300 299 300 300 299 299 300 299 300 300
318 317 316 315 314 314 314 314 314 313 312 312 311 310 309 308 307 308 308 308 307 306 306 306 306 306 306 307 305 304 304 302 300 299 299 299 299 300 300 299 299 301 300 299 300 300 301 301 302 301 301 301 300 300 300 299 299 299 299 299 299 299 299 299 299 299 300 299 299 299 299 299 299 299 299 299 299 299 299 299 299 299 299 299 299
317 316 314 312 311 312 313 313 313 312 312 311 310 310 309 307 305 305 306 307 307 306 305 306 306 306 306 306 304 303 303 302 300 299 299 299 299 300 300 299 299 299 299 298 298 300 301 301 301 300 300 300 300 299 299 300 299 299 299 299 299 299 300 299 299 300 300 299 299 299 299 299 299 299 299 299 299 299 299 299 299 299 299 299 299
316 315 314 311 311 312 313 312 312 311 311 311 310 309 309 308 306 304 303 305 306 306 305 304 305 304 304 304 303 302 301 301 300 299 299 299 299 299 299 299 299 297 296 296 297 299 300 300 300 300 300 300 300 299 299 300 300 300 300 299 299 300 301 300 300 300 300 299 300 300 300 299 299 299 299 299 299 299 299 299 299 299 299 299 299
316 315 314 312 311 312 312 312 311 311 311 311 310 309 309 309 308 305 304 304 305 305 304 303 303 302 302 302 302 301 300 300 300 299 298 298 298 298 297 297 297 296 295 296 298 299 300 300 301 301 300 300 300 300 299 300 300 300 300 300 301 301 301 300 301 301 300 300 300 300 299 299 299 299 299 299 299 299 299 299 299 299 299 299 299
316 315 313 312 312 313 312 312 312 311 311 310 309 308 307 307 307 306 306 306 306 305 304 302 302 301 301 301 301 300 300 299 298 298 297 296 297 297 296 296 296 296 295 296 298 300 301 301 301 301 301 301 301 300 300 300 300 300 300 301 301 301 301 301 301 300 300 300 300 299 299 299 299 299 299 299 299 299 299 299 299 299 299 299 299
314 313 312 311 312 313 312 312 311 311 311 310 308 306 305 306 306 306 306 306 306 306 305 303 301 300 301 300 300 299 298 297 296 295 295 295 296 296 296 297 297 297 297 297 298 300 301 301 301 301 301 301 301 300 300 301 301 301 301 301 301 301 301 301 300 300 299 299 299 299 299 299 299 299 299 299 299 299 299 299 299 299 299 299 298
313 312 311 311 312 312 312 311 311 311 310 309 306 304 304 305 305 304 305 305 305 305 305 303 300 299 299 299 298 297 296 296 295 295 295 296 296 296 297 298 298 298 298 298 298 300 301 302 301 301 301 302 301 301 301 301 301 301 301 300 301 301 301 300 299 299 299 299 299 299 299 299 299 299 299 299 299 299 299 299 299 299 298 298 298
313 312 311 312 312 312 311 311 310 310 309 308 307 304 303 304 304 303 303 303 303 302 302 301 299 298 298 297 296 295 295 295 295 295 296 296 296 296 297 298 299 299 299 299 300 300 301 301 301 301 302 302 302 302 302 301 301 301 301 300 301 301 300 299 299 299 299 299 299 299 299 299 299 299 299 299 299 299 299 299 298 298 298 299 299
312 312 311 312 312 311 310 310 310 309 308 308 306 303 302 302 302 302 302 301 300 300 301 301 299 298 298 297 296 295 295 295 295 295 295 296 296 296 297 299 300 301 301 301 301 301 301 301 301 301 302 302 302 302 301 301 301 301 301 301 301 300 300 300 300 300 299 299 299 299 299 299 299 299 298 299 299 299 298 298 298 298 299 298 298
311 311 311 311 310 310 310 309 309 308 307 307 306 303 301 301 301 301 301 301 300 301 302 302 299 297 297 297 296 295 295 296 296 295 295 296 296 296 297 298 301 302 302 302 301 301 301 301 302 302 302 302 302 302 301 301 301 301 301 301 300 300 300 300 300 299 299 299 299 299 299 299 298 298 298 298 298 298 298 298 298 298 298 298 298
310 309 310 310 310 310 310 308 307 307 307 307 305 302 300 301 302 302 302 302 301 302 303 303 300 298 297 296 294 294 295 296 296 296 296 297 297 297 297 298 301 302 301 301 301 301 301 301 302 302 302 302 302 302 301 301 301 301 301 300 300 300 300 300 299 299 299 299 299 298 298 298 297 297 298 298 298 298 298 298 297 297 297 297 297
310 309 309 309 310 310 309 307 307 307 307 307 306 302 300 301 302 302 303 303 302 303 304 303 301 298 297 296 293 293 295 297 296 297 297 297 297 297 298 299 301 302 301 301 301 302 301 301 302 301 302 301 301 301 301 301 301 301 300 300 300 300 300 299 299 299 298 298 298 297 297 297 297 297 297 297 298 297 297 296 296 296 296 296 295
310 309 309 309 309 309 308 307 307 307 307 306 305 302 301 301 301 303 303 304 303 303 304 304 302 299 297 296 294 293 295 298 297 297 298 298 297 298 299 300 300 301 301 301 302 302 301 301 301 301 301 301 301 301 301 301 300 300 300 300 300 299 299 299 298 297 297 297 297 296 296 296 297 297 297 297 296 296 295 295 295 294 293 293 292
308 308 307 308 307 307 307 307 306 306 306 305 303 301 300 300 301 302 303 303 303 303 304 304 302 298 296 296 294 293 295 298 298 297 298 299 298 299 300 300 300 301 301 301 301 301 301 301 300 300 300 300 300 301 302 301 301 300 299 299 299 298 298 297 296 296 295 295 295 295 296 296 295 295 295 295 294 294 293 293 292 291 290 290 289
308 307 306 306 306 305 306 306 305 305 306 304 301 301 301 302 301 302 302 302 303 303 303 303 302 298 297 297 296 294 296 299 299 298 299 299 299 299 300 300 300 301 301 301 301 301 301 300 300 300 300 300 301 302 302 301 300 299 298 298 297 297 296 295 295 294 294 293 294 294 295 294 294 294 293 292 291 291 291 290 289 288 288 288 287
307 306 306 306 305 304 304 304 304 304 304 303 301 302 303 303 303 303 302 302 303 303 303 302 300 298 298 298 298 296 296 298 299 299 299 299 299 299 300 300 300 300 300 301 301 301 300 300 300 300 299 300 301 301 300 299 298 297 297 296 296 295 295 294 294 293 292 292 292 292 292 292 292 292 290 289 288 288 288 288 287 287 287 286 286
307 306 306 306 305 304 304 303 303 303 303 303 302 302 302 303 304 304 303 303 303 303 302 300 299 298 298 298 298 297 296 296 298 298 298 298 299 299 299 299 300 300 301 301 301 301 300 299 299 299 298 299 299 299 298 296 296 295 295 295 295 294 294 294 293 292 291 291 291 290 290 290 290 289 287 287 287 287 286 286 286 286 285 285 285
306 306 306 305 305 304 303 303 302 302 302 302 302 302 302 302 303 304 303 303 303 303 301 299 299 299 298 297 297 297 296 295 297 297 297 298 299 299 299 300 300 301 301 301 300 300 299 298 298 298 297 297 297 297 296 295 294 294 294 294 294 294 294 293 292 292 291 290 289 289 288 288 287 286 285 286 286 286 285 284 285 284 284 284 285
304 304 304 305 304 304 303 302 302 302 302 302 302 301 302 302 302 303 303 302 302 302 300 299 299 299 297 296 296 296 295 295 297 297 297 298 299 300 300 301 301 301 301 300 299 299 298 298 298 297 296 296 296 295 295 294 294 294 294 294 293 293 293 292 292 291 289 287 286 287 287 286 285 284 285 285 285 284 283 283 283 283 283 283 284
303 303 303 303 303 302 302 302 302 302 302 302 301 301 301 301 301 302 302 301 301 301 300 299 298 297 296 295 295 295 295 296 298 299 299 299 300 301 301 301 300 300 299 299 299 298 298 297 297 296 296 295 295 295 294 294 294 294 294 293 292 293 292 291 289 287 285 284 284 285 285 284 284 284 284 284 283 282 282 282 282 282 283 283 283
303 303 302 302 302 301 301 301 301 301 301 301 301 300 300 300 300 300 301 301 301 300 299 298 297 296 296 296 296 296 297 298 299 300 300 300 300 301 300 299 299 299 298 298 298 297 296 296 296 295 295 295 294 294 294 294 293 293 292 292 292 291 290 288 286 284 282 282 283 283 283 283 283 283 283 283 281 281 281 282 281 281 282 283 282
Wind_Speed
19 20 21 21 22 21 22 21 19 19 20 21 21 18 18 23 24 24 23 22 21 18 16 15 13 13 13 13 13 13 12 10 10 9 10 11 10 10 11 11 11 11 11 11 11 11 11 11 10 9 8 8 7 7 8 8 9 9 9 9 9 10 9 8 7 6 8 12 13 13 16 16 15 19 20 19 20 20 20 19 19 19 20 20 21
26 23 22 24 24 22 23 21 19 19 18 18 17 16 19 24 25 24 23 23 20 15 14 14 13 13 14 14 14 13 12 11 10 10 11 12 11 11 11 11 12 12 12 12 11 11 11 11 10 9 9 8 8 8 8 8 8 9 9 9 9 9 9 9 8 7 8 10 12 12 14 15 15 18 20 20 20 19 19 19 19 19 19 20 20
27 23 24 26 23 21 22 21 20 20 18 16 14 15 21 25 24 24 24 21 17 14 14 14 13 14 15 15 14 13 12 11 10 11 12 12 12 12 12 12 12 12 12 12 11 11 11 11 10 9 9 9 9 8 8 8 8 8 8 9 9 9 9 9 8 8 8 9 11 12 14 14 15 17 19 19 18 18 18 18 18 19 19 19 20
22 22 24 25 20 19 21 21 21 20 19 19 19 20 25 26 24 24 23 19 17 15 15 14 14 15 15 15 14 13 12 11 11 12 12 12 13 13 13 13 12 12 12 12 11 11 10 11 10 9 9 9 9 9 9 8 8 8 8 8 8 8 8 9 9 8 8 8 10 11 13 14 14 15 18 19 18 17 17 17 17 18 18 18 19
22 23 23 22 19 19 21 21 22 22 21 22 23 25 28 28 26 24 22 19 18 16 15 15 15 15 15 15 14 13 12 12 12 13 13 13 13 13 13 13 13 13 12 12 11 11 11 11 10 9 8 8 8 8 9 9 9 9 9 8 7 7 7 7 8 8 8 8 10 10 12 14 14 14 16 18 17 17 18 17 16 17 18 18 18
25 25 23 20 17 19 22 23 24 23 21 24 27 29 29 30 28 24 20 19 19 17 16 15 15 15 15 15 14 13 12 13 13 13 13 13 13 13 13 13 13 13 12 12 11 11 11 12 11 10 9 8 8 7 8 9 9 9 9 8 7 6 6 5 6 8 9 9 9 10 12 13 14 15 16 18 17 17 18 17 16 17 18 19 19
25 26 24 20 18 18 21 22 23 21 21 25 28 28 28 30 28 24 21 20 18 17 16 15 16 16 15 15 14 13 13 13 14 13 14 14 13 14 14 14 13 13 12 12 12 12 12 12 12 11 11 9 8 7 8 9 9 9 9 8 7 6 5 5 6 8 10 9 10 11 11 13 14 15 16 17 15 16 18 18 18 19 19 19 19
24 25 25 23 21 20 21 22 21 20 20 23 24 26 27 27 25 23 21 19 17 16 16 16 17 16 16 15 14 14 14 14 14 14 14 14 14 14 14 14 14 13 13 13 13 13 14 14 14 15 15 14 12 11 9 9 9 9 9 8 7 6 6 6 7 8 10 10 10 11 11 13 15 15 16 17 17 17 18 18 18 20 20 19 18
24 25 26 24 22 24 26 23 19 20 23 24 23 25 26 24 22 22 20 17 16 16 16 17 17 17 16 15 14 15 15 14 14 14 14 14 14 14 14 14 14 14 14 14 14 14 15 16 17 18 19 19 18 17 16 15 14 13 11 8 7 6 7 8 8 8 10 11 11 11 12 13 16 17 18 18 18 18 19 18 18 19 20 19 18
24 25 26 24 22 25 25 21 21 24 26 26 25 25 25 23 22 21 18 16 16 17 17 17 18 18 16 16 16 15 13 14 16 16 15 15 15 15 14 14 13 14 14 14 14 14 15 16 18 19 20 20 21 21 21 21 20 19 16 13 9 7 7 9 10 10 10 11 12 12 12 13 16 18 18 18 18 18 18 18 19 20 20 19 18
23 23 26 25 23 24 23 22 24 26 26 25 25 26 26 24 22 20 18 16 16 17 18 18 18 17 16 16 16 13 13 17 19 18 17 16 15 15 15 14 13 13 14 14 14 14 13 12 11 13 15 17 19 20 20 20 19 18 19 19 16 12 10 9 10 11 10 11 12 12 12 13 15 17 18 19 19 18 18 18 19 20 20 18 17
21 23 26 25 23 23 23 23 25 25 25 25 25 25 25 23 22 20 19 18 18 18 18 18 18 17 16 16 14 14 17 21 21 19 19 17 15 15 14 14 13 13 13 13 13 11 10 9 8 8 8 9 10 11 13 15 15 14 15 17 19 18 16 13 11 10 10 10 11 12 12 13 14 16 18 19 20 19 17 17 18 19 20 18 17
21 24 25 23 23 23 23 25 25 24 25 25 24 24 24 23 22 20 18 19 19 19 18 18 17 16 16 15 14 16 21 23 22 21 20 18 16 15 13 13 13 13 13 12 11 10 10 9 9 8 7 5 5 4 4 6 8 9 10 12 15 16 16 16 14 12 11 10 10 11 12 12 13 15 17 19 20 19 17 18 19 20 20 19 18
21 23 23 23 23 23 23 24 23 23 25 26 26 24 23 22 21 19 19 19 19 19 18 18 17 16 16 16 16 19 23 24 23 22 20 18 16 15 14 13 13 13 12 12 11 10 10 9 9 7 5 5 5 4 3 2 2 4 5 7 10 12 13 13 13 12 10 9 10 10 10 10 10 12 15 18 19 18 17 18 20 21 21 19 18
21 21 22 22 23 23 24 25 24 24 26 26 25 22 21 22 21 19 20 19 19 19 18 17 17 17 17 17 18 19 23 25 24 22 20 18 16 15 14 14 13 13 12 11 10 10 9 9 9 7 6 5 7 6 5 3 2 3 4 4 6 9 11 12 12 11 10 9 9 8 8 10 10 11 15 19 20 19 17 16 18 20 19 18 17
21 21 22 22 22 23 26 29 27 26 25 24 23 22 22 22 21 20 20 19 19 19 17 17 18 18 18 18 18 20 24 26 23 22 21 19 16 15 14 13 13 13 12 11 11 10 9 9 9 8 7 7 9 8 6 4 3 3 4 3 3 3 5 9 10 10 10 9 10 9 10 12 12 12 15 18 21 22 18 15 17 19 18 17 18
21 22 22 23 23 23 28 32 29 26 25 23 22 22 20 20 20 21 20 20 20 18 17 17 18 18 19 19 19 21 24 25 24 23 23 19 15 13 13 13 13 12 12 11 10 10 10 10 9 8 7 9 11 9 6 4 3 4 4 3 3 2 2 6 8 9 10 10 11 11 11 12 12 11 11 14 17 21 18 16 18 19 18 17 16
21 22 22 23 23 24 29 33 29 26 24 23 22 21 21 21 21 21 21 21 20 18 17 18 18 18 19 19 20 21 22 24 26 24 21 18 14 13 12 13 13 12 11 10 9 10 11 12 11 8 8 10 11 9 6 4 4 3 3 3 2 3 4 4 6 8 10 10 11 12 11 11 12 10 10 12 15 17 17 16 18 18 17 17 17
21 21 21 23 23 24 28 29 27 25 24 22 22 22 22 22 22 21 21 20 19 18 18 18 18 18 18 19 20 19 21 25 26 22 20 18 13 10 11 13 12 12 11 11 10 10 11 12 11 9 9 10 10 9 7 6 5 3 2 3 2 3 4 4 6 8 8 9 10 11 10 11 11 10 11 13 13 15 16 16 17 17 17 17 18
21 21 22 23 24 25 27 27 26 25 24 22 22 22 22 22 22 21 21 20 19 18 18 18 19 18 18 19 19 18 20 24 25 22 20 17 9 6 10 13 13 12 12 12 11 11 10 10 10 10 10 9 9 8 7 7 7 4 3 3 3 3 3 4 6 8 7 7 9 9 8 10 9 9 12 12 12 13 16 15 15 16 16 17 18
22 22 24 25 25 26 28 28 26 25 23 23 23 22 22 21 22 22 21 20 19 19 19 19 19 18 19 18 17 17 18 22 23 22 20 15 8 5 9 12 13 12 12 12 11 11 11 9 9 10 9 8 7 7 7 7 8 5 3 3 3 4 3 3 7 8 7 7 9 9 9 10 10 10 12 13 12 13 15 16 16 16 16 16 17
22 23 24 26 25 25 27 27 26 24 23 23 23 22 21 22 23 22 21 20 20 20 20 20 19 19 19 17 17 17 18 20 23 22 18 13 9 5 6 11 14 12 11 12 11 11 11 10 10 10 8 7 7 6 6 6 6 4 3 5 5 5 4 4 6 7 7 7 9 9 9 10 10 11 12 13 13 13 14 16 17 17 16 16 16
22 23 24 24 24 23 25 25 24 23 23 24 24 23 23 23 23 22 21 21 21 20 20 20 19 19 19 17 17 17 17 18 22 21 16 12 9 6 7 13 15 10 8 11 10 10 11 10 10 10 9 7 6 5 5 4 2 2 4 6 6 5 5 5 5 6 6 7 9 9 9 11 11 11 13 14 14 14 14 16 18 17 17 17 17
23 23 23 24 24 23 24 23 22 23 24 25 24 23 24 24 22 20 21 21 21 20 20 19 20 20 19 18 18 17 17 17 20 21 17 13 10 8 11 15 14 7 6 9 10 10 11 11 10 10 8 7 6 4 4 3 1 2 4 6 6 6 6 5 5 6 6 7 8 9 10 11 11 12 13 14 14 14 13 15 17 17 17 18 18
22 22 23 24 25 24 24 22 22 23 24 25 25 23 23 22 20 19 21 21 19 19 19 19 19 20 19 19 18 18 17 17 18 20 18 14 11 11 13 15 12 7 6 9 11 12 13 11 9 9 8 7 7 5 3 3 3 5 6 5 3 4 5 5 5 6 6 8 8 9 11 11 11 12 13 13 14 14 14 16 17 16 17 18 17
21 21 22 23 24 24 23 22 22 23 24 24 24 23 22 22 20 20 21 21 19 19 19 19 19 19 19 19 19 19 19 18 18 18 17 14 12 13 15 16 12 6 5 9 11 12 11 9 9 9 9 7 5 3 1 1 3 5 5 4 3 3 4 5 6 5 6 8 8 9 11 11 11 12 13 13 14 13 14 17 17 17 18 18 17
21 21 22 22 23 22 23 23 23 23 23 23 23 22 22 22 21 21 21 20 19 19 19 19 19 19 19 19 19 19 19 19 18 18 17 15 13 13 15 15 13 7 5 7 9 10 10 9 9 8 7 6 5 5 7 6 3 0 1 0 1 1 3 5 5 4 6 8 7 8 10 10 11 12 12 13 14 13 14 16 15 15 18 18 17
22 22 21 21 22 22 23 23 22 22 21 21 21 21 21 21 20 20 21 20 19 19 20 20 20 19 19 20 20 20 19 19 20 20 19 17 16 15 14 14 13 11 9 9 10 10 9 9 8 7 6 6 7 8 9 8 5 3 2 2 1 1 2 2 2 4 6 7 7 8 9 9 10 11 12 13 14 12 13 15 16 15 18 19 18
21 21 20 21 22 22 21 22 21 21 21 21 19 18 19 19 19 19 20 20 18 18 19 20 19 19 19 19 20 20 19 19 21 22 20 18 18 17 15 15 14 12 12 12 12 10 10 9 8 9 9 9 10 10 9 7 6 4 2 1 2 1 1 1 1 4 5 6 6 7 8 9 10 11 12 13 14 13 13 16 18 18 19 19 18
21 20 20 20 21 21 22 22 21 21 22 20 17 16 16 16 17 19 20 20 18 18 18 18 18 18 18 18 19 20 19 21 23 24 22 20 20 18 17 17 15 12 14 15 13 9 10 10 10 10 10 9 9 8 6 4 4 3 3 2 0 1 1 1 2 3 4 5 6 7 7 9 10 11 12 12 14 15 15 16 18 18 19 19 19
21 21 20 20 22 22 22 23 22 21 21 20 18 17 16 12 11 16 20 20 19 18 17 17 19 19 17 18 19 18 18 22 25 25 23 22 20 18 18 18 14 10 14 17 12 7 9 10 9 9 9 8 7 6 5 5 4 3 3 2 1 1 1 1 2 2 3 4 5 6 7 8 10 11 12 12 13 15 15 16 17 18 18 19 20
21 21 20 21 23 23 21 21 20 19 20 19 19 19 19 13 10 12 17 20 20 17 15 15 18 17 16 19 20 18 18 23 26 26 25 22 19 16 17 18 13 9 12 16 12 8 8 9 9 9 9 7 6 6 6 5 5 5 4 3 2 3 2 2 1 2 3 4 6 6 6 8 10 11 12 12 13 15 15 16 17 18 18 20 20
20 20 20 22 23 22 21 21 20 19 19 20 19 19 21 20 15 12 14 17 19 17 14 14 15 14 14 19 21 18 19 22 24 25 26 23 19 16 15 16 13 10 12 14 11 8 9 10 9 9 8 7 8 7 6 6 5 5 4 4 4 4 3 1 2 3 2 5 6 6 7 9 10 11 12 13 14 15 15 16 18 18 19 20 19
19 19 20 21 21 22 22 21 20 19 19 19 19 18 20 22 21 17 15 16 17 17 14 13 14 14 15 18 19 17 17 18 19 22 25 24 20 17 15 14 14 12 12 13 10 9 10 10 9 9 8 8 7 7 6 6 5 4 4 4 4 4 3 2 3 2 3 6 7 7 8 10 11 12 13 14 15 15 15 16 18 19 19 19 19
19 20 21 21 20 22 22 20 19 20 19 18 18 18 19 20 21 20 17 16 16 17 15 13 13 14 15 16 16 15 15 15 15 19 22 23 21 18 15 13 13 12 13 13 11 10 10 10 9 8 8 7 7 6 6 6 5 5 5 5 4 4 3 2 2 2 4 7 8 9 10 11 11 11 13 14 15 16 16 17 18 18 18 18 18
17 21 24 22 20 21 21 20 19 19 19 17 17 17 18 18 19 19 18 18 17 18 16 14 14 15 15 14 14 13 12 13 14 18 20 21 20 18 15 13 12 12 13 13 13 12 10 10 9 8 8 7 7 7 7 6 6 5 5 4 4 4 3 1 1 3 6 8 9 9 10 10 11 12 13 14 15 16 16 17 17 16 17 18 19
17 20 23 21 21 20 20 19 18 17 17 17 16 16 16 17 17 17 18 18 18 18 17 16 16 16 15 14 14 14 13 14 15 18 19 20 20 18 15 13 12 12 13 14 14 12 11 9 9 8 8 7 7 7 6 6 6 5 4 4 4 4 3 2 4 7 8 9 10 11 10 11 12 13 14 14 15 16 16 16 16 16 18 19 19
17 19 21 21 20 19 18 17 15 15 15 15 14 13 14 15 16 16 17 17 17 17 16 16 17 17 16 16 17 17 17 17 17 17 18 19 19 18 15 12 12 13 13 13 14 12 11 10 9 8 8 7 7 7 6 6 6 6 5 5 5 4 4 6 8 10 10 11 11 11 12 13 13 13 14 14 15 15 15 15 16 16 17 17 17
18 20 22 22 20 18 18 17 16 15 15 13 11 11 12 13 15 16 16 16 17 16 15 15 16 17 17 18 19 19 18 18 17 16 17 17 17 17 15 13 12 13 13 12 12 11 10 10 9 9 8 7 7 6 6 6 6 6 5 5 5 5 6 7 8 9 9 10 12 13 13 13 12 12 13 13 14 14 15 15 15 15 16 17 18
18 22 25 24 21 19 18 18 19 20 19 15 11 10 10 11 13 15 15 16 17 16 14 14 16 17 18 20 21 21 19 18 16 16 16 17 17 17 16 15 13 12 11 10 10 11 10 9 8 8 8 7 6 6 6 6 6 6 6 6 6 7 7 8 10 11 11 11 11 12 11 11 10 11 12 12 13 14 15 15 15 16 17 18 18
18 23 26 25 22 19 18 19 21 21 19 16 13 12 11 11 12 13 13 15 16 15 14 14 15 17 19 22 24 23 20 17 17 17 17 17 17 17 17 16 13 11 11 10 9 10 10 9 8 8 8 7 7 7 6 6 6 6 6 6 7 8 8 10 11 10 9 9 9 9 9 10 10 11 11 12 13 14 13 14 15 17 17 17 17
17 21 24 24 22 20 19 18 19 20 20 17 14 14 14 13 12 12 12 14 14 14 13 12 14 17 21 22 24 23 20 16 16 17 17 17 17 17 16 16 13 11 11 11 10 9 9 8 7 7 6 6 6 6 6 6 6 6 7 8 8 8 9 9 8 7 6 6 7 7 8 10 10 10 11 12 13 13 13 15 16 16 16 16 18
18 20 21 21 20 20 20 20 20 21 21 17 13 13 15 14 11 10 10 12 13 12 11 10 12 19 23 21 21 23 20 16 16 17 16 17 17 16 15 14 13 11 10 10 9 9 8 8 7 6 5 4 5 6 5 5 5 5 6 7 7 6 6 5 5 5 5 6 6 8 9 9 9 10 11 12 12 12 14 15 14 15 16 17 17
22 23 23 21 20 21 23 23 23 23 22 20 16 15 16 17 14 10 10 11 11 11 11 9 12 22 24 21 21 22 19 14 15 17 16 15 16 15 14 13 12 10 9 9 8 7 7 6 6 5 5 4 4 3 2 2 2 2 4 6 4 2 3 3 3 4 6 6 7 8 8 8 9 10 11 11 12 13 14 14 14 15 16 16 16
21 24 24 22 22 23 23 24 24 24 24 23 19 15 16 18 16 13 12 12 11 11 12 10 12 22 23 19 19 20 17 13 13 15 15 14 15 14 13 12 11 9 9 8 7 7 7 6 5 6 6 4 1 0 2 3 2 2 4 6 2 1 2 4 4 5 6 7 7 7 8 8 9 10 10 11 12 13 13 13 14 14 15 15 16
18 20 21 20 21 22 22 22 23 24 25 25 21 17 17 18 16 15 15 12 11 13 13 8 13 20 18 15 16 17 14 11 10 12 13 12 12 12 11 10 10 9 8 8 8 9 9 8 7 8 9 7 3 3 3 5 6 5 6 6 5 4 4 4 3 4 6 7 7 7 8 9 9 9 10 11 11 11 12 13 13 13 14 15 16
16 17 17 17 18 19 20 22 23 23 24 25 23 21 19 17 15 16 17 14 13 14 12 10 14 15 14 14 15 16 15 13 10 10 10 11 10 10 10 9 9 9 8 8 10 11 11 11 11 11 11 9 6 5 4 4 7 8 8 7 6 4 4 3 2 3 5 7 7 7 7 8 8 8 10 11 10 10 11 12 12 13 14 14 15
14 15 16 16 17 17 18 22 25 23 21 23 23 23 21 17 14 14 15 14 14 15 13 12 12 13 13 14 16 16 17 16 13 11 12 12 11 11 11 10 9 9 9 10 11 12 13 13 13 12 11 9 8 8 7 7 9 9 7 5 4 4 4 3 4 5 6 7 7 6 6 6 7 8 9 9 9 10 11 12 12 13 13 13 13
12 13 13 14 15 15 17 22 24 20 18 19 21 21 20 18 15 14 14 14 15 15 15 15 16 16 15 16 17 17 18 18 16 14 15 15 13 12 12 11 11 12 12 13 14 14 13 13 12 11 10 11 11 11 11 11 10 9 6 4 3 3 4 5 6 7 7 6 5 4 5 6 6 7 8 8 8 9 10 10 11 12 13 12 12
12 12 12 13 13 13 16 21 22 18 17 18 19 18 18 18 16 14 15 15 15 16 16 17 18 17 16 17 18 19 20 19 17 15 15 14 13 13 14 14 15 15 15 15 15 14 14 13 12 11 11 12 13 14 13 11 8 6 5 3 3 4 5 6 7 7 7 6 4 4 4 5 6 7 7 7 8 9 9 9 10 11 11 11 11
14 15 15 15 15 14 16 19 20 17 17 19 19 18 18 17 15 14 15 15 14 15 16 16 16 16 15 16 17 18 18 18 16 14 12 12 13 14 15 15 16 16 16 15 14 14 13 12 12 12 12 13 13 12 11 9 6 5 3 3 3 5 6 6 6 6 6 5 4 4 4 5 5 6 6 6 8 9 8 8 10 11 10 10 11
Wind_Direction
170 170 170 170 173 175 173 172 168 165 168 169 168 169 171 173 171 169 168 162 154 147 144 144 145 151 153 151 152 152 150 147 137 130 125 121 121 121 121 121 116 113 110 106 102 98 95 90 85 78 74 72 65 59 54 46 45 45 41 43 44 33 22 25 31 29 30 22 13 12 9 4 6 7 4 1 0 1 3 1 360 4 5 1 353
174 168 166 171 175 173 170 170 166 161 162 162 161 162 168 174 174 170 165 159 153 150 147 143 147 154 154 153 154 152 152 149 140 133 128 125 124 123 124 123 118 115 112 107 103 100 96 91 87 79 72 69 64 58 52 48 46 46 46 43 42 38 28 27 30 27 26 21 15 14 12 7 5 6 4 1 358 358 0 359 359 2 2 359 355
168 161 172 178 174 166 165 166 162 156 155 157 154 157 168 173 173 169 162 155 154 154 148 146 154 157 154 153 154 152 152 148 139 133 131 130 127 126 126 124 120 118 114 110 107 103 98 93 88 82 77 72 65 57 49 48 47 44 47 46 41 40 34 29 29 26 24 20 15 15 13 9 7 5 2 358 355 356 358 357 357 0 360 357 355
162 162 176 180 170 160 161 160 155 153 158 166 166 166 170 171 168 163 155 151 159 160 149 150 157 157 156 156 154 152 150 144 137 133 132 131 129 128 128 125 122 119 114 111 109 105 100 96 90 84 81 75 67 61 50 47 48 42 43 46 43 40 35 32 29 25 23 23 20 17 13 8 6 4 360 355 354 355 356 357 358 360 358 353 352
162 163 169 171 165 160 159 155 153 155 161 170 172 166 164 164 160 155 150 154 162 160 153 155 160 159 158 157 153 151 147 139 135 133 131 132 131 130 128 124 120 116 113 110 107 103 99 94 89 83 80 75 67 61 52 48 49 45 42 42 41 38 34 33 32 27 26 26 23 18 14 9 5 4 3 357 353 355 357 358 0 0 356 351 352
163 163 163 162 159 157 157 154 154 156 159 167 170 164 161 160 155 151 154 160 162 160 158 157 161 161 158 155 153 148 142 138 136 134 133 133 131 128 125 122 119 116 114 109 104 101 97 90 85 77 73 71 65 59 54 51 49 47 42 38 38 39 35 35 38 35 31 29 26 19 16 14 7 3 4 0 356 356 355 355 359 0 356 352 352
162 166 165 161 156 157 158 155 153 155 158 162 163 161 160 158 154 154 160 162 160 161 159 157 160 159 154 153 151 144 140 138 136 136 136 134 131 128 126 123 121 118 114 109 103 98 93 86 80 74 69 67 64 58 54 51 50 49 43 36 36 39 39 40 44 42 37 32 28 23 18 15 10 3 1 359 359 360 357 353 354 356 355 352 352
159 166 165 160 157 158 158 156 154 153 153 155 157 157 157 154 153 157 162 162 161 159 156 157 158 155 152 151 148 142 140 139 138 139 138 136 132 130 127 126 124 120 114 110 104 97 91 85 82 81 81 81 80 78 72 62 55 46 38 35 38 42 46 45 45 46 42 34 28 24 19 16 10 3 0 360 0 360 358 354 350 351 351 351 354
159 162 159 155 154 156 157 155 154 153 151 151 154 156 154 153 155 158 161 164 162 155 154 157 156 154 154 150 144 142 140 140 145 144 141 138 135 132 130 129 127 123 118 113 106 100 95 91 88 87 87 87 86 85 81 77 71 58 44 37 36 43 52 50 45 44 42 36 29 22 20 18 10 4 2 1 358 353 352 353 352 351 349 349 356
158 157 154 152 151 153 155 154 155 156 153 151 151 152 154 155 155 156 159 162 159 152 152 156 156 156 155 148 144 142 140 145 150 147 143 140 136 133 133 131 128 125 121 115 111 108 104 98 89 84 84 85 86 84 80 76 73 69 65 62 57 54 56 53 48 44 42 38 30 21 20 17 12 6 1 357 353 349 349 352 353 351 349 349 354
156 155 153 152 149 149 151 151 153 155 153 151 152 152 154 154 153 155 158 157 154 152 153 155 157 157 153 148 144 140 141 149 151 146 142 140 137 136 134 131 129 127 124 121 120 120 120 113 97 85 82 81 80 78 75 72 69 67 67 69 70 70 67 59 49 41 41 43 34 25 22 17 12 7 0 354 351 348 348 351 352 350 349 348 348
157 155 152 150 147 148 150 151 154 154 151 150 150 149 149 149 151 155 156 152 150 152 154 156 157 155 150 146 142 139 146 152 151 146 142 139 138 137 134 132 131 129 128 129 131 133 133 129 121 111 105 95 82 70 62 62 62 61 60 61 65 70 72 71 62 45 39 43 39 30 23 16 13 7 0 353 348 345 346 349 350 349 346 344 345
154 152 150 150 149 150 152 153 154 151 146 143 143 145 147 149 150 150 148 150 151 152 156 158 155 152 147 143 138 140 149 153 151 146 143 141 140 138 134 133 132 130 131 134 135 136 132 126 123 122 121 119 115 99 62 54 56 57 54 49 50 57 62 64 64 56 46 44 44 39 28 20 15 7 0 354 349 346 345 345 348 348 343 341 346
152 151 153 154 152 153 153 151 147 145 144 143 142 142 143 144 145 144 146 153 155 154 157 157 152 146 144 140 135 140 150 154 151 146 144 141 139 136 132 131 129 129 132 134 134 134 129 124 123 121 114 115 125 129 118 101 73 69 68 57 50 50 50 52 54 53 50 50 47 42 30 19 9 1 359 357 354 348 339 338 345 345 340 341 347
151 152 154 155 154 153 152 146 140 140 145 146 143 139 139 140 143 147 154 158 157 157 158 155 147 143 141 139 135 141 152 153 150 147 144 139 135 132 128 128 128 128 131 131 129 127 122 115 113 109 103 126 147 143 118 114 130 114 106 93 72 60 51 50 54 55 53 52 48 40 26 14 5 359 1 2 1 352 337 335 345 344 340 346 352
151 152 153 155 155 152 150 147 143 141 142 141 140 139 141 145 149 155 161 161 158 159 156 150 146 143 142 140 138 144 153 153 151 149 143 134 130 129 128 130 130 129 130 129 125 120 114 110 110 104 103 133 152 148 130 122 123 118 113 100 94 79 33 25 32 38 36 32 27 18 12 10 6 2 4 5 4 358 344 339 348 346 345 352 355
153 151 151 154 155 152 153 152 147 143 142 140 141 144 148 153 158 162 163 161 160 159 153 147 146 145 143 142 141 146 154 156 153 148 141 133 130 133 135 135 134 133 133 132 126 118 117 120 117 108 112 137 147 143 133 124 117 119 117 93 86 108 16 345 348 359 3 3 4 357 355 1 359 353 356 3 6 0 350 344 348 349 347 351 354
155 153 152 154 153 152 154 155 149 144 145 145 147 153 159 162 163 164 163 162 161 158 152 148 147 146 145 146 145 148 155 159 155 148 142 138 136 140 144 141 139 139 136 131 125 124 130 134 128 119 128 144 147 143 128 103 101 117 111 86 68 66 43 3 347 345 338 338 343 339 336 348 351 343 344 357 8 6 353 344 346 347 345 347 349
157 155 154 155 153 150 151 152 150 148 151 154 157 161 163 164 163 163 163 162 161 159 154 149 147 147 147 146 147 150 156 159 157 150 147 146 143 147 153 149 145 144 139 130 125 129 139 147 146 143 147 151 151 148 131 101 89 82 65 64 49 28 14 355 357 353 334 327 334 332 333 345 351 349 348 355 9 8 355 345 345 345 342 342 346
157 155 154 155 154 151 149 150 151 153 157 160 161 162 163 163 163 164 163 162 161 159 154 149 147 147 145 147 150 153 157 161 160 154 153 156 158 156 157 156 153 148 144 138 132 135 144 156 164 159 149 149 151 150 143 116 89 66 44 52 37 13 347 314 331 342 334 333 342 344 351 356 356 0 359 358 4 1 352 349 347 344 341 340 343
156 155 155 156 154 151 150 152 155 157 160 161 162 163 164 164 165 164 163 163 162 159 153 150 147 145 146 149 152 155 161 166 164 160 161 169 173 153 154 162 160 152 150 149 147 151 151 154 168 165 150 147 146 143 147 127 96 75 69 90 88 65 42 330 321 331 335 343 350 352 356 357 357 1 0 358 357 353 350 352 349 342 341 342 341
153 153 154 155 152 149 153 157 158 158 160 162 163 164 165 165 165 165 164 164 162 158 153 151 148 146 149 152 153 155 163 169 169 168 171 178 177 155 150 163 161 156 159 161 159 159 154 154 169 171 158 155 150 142 147 131 100 88 105 98 90 71 38 338 324 338 347 353 354 352 355 355 353 357 358 354 350 347 347 350 348 342 342 343 338
151 152 152 153 150 149 155 159 156 155 160 164 165 165 164 165 167 167 166 165 161 156 154 153 150 149 152 154 154 156 161 169 175 177 178 182 181 159 142 158 162 159 163 167 162 152 147 156 174 173 159 157 157 146 146 137 102 92 107 92 76 52 10 327 329 347 349 355 356 352 353 354 350 352 355 350 343 342 345 347 346 343 343 343 338
152 153 153 155 155 155 157 158 156 158 162 164 166 166 165 166 166 161 160 162 160 156 157 157 154 155 156 156 157 158 160 168 178 182 182 184 181 159 147 159 164 153 148 163 162 152 152 164 176 171 157 150 148 131 116 123 139 122 105 91 67 33 358 338 346 352 351 0 1 355 353 353 351 351 349 344 341 342 346 347 345 345 345 343 340
152 153 154 157 159 158 159 160 160 162 164 165 167 166 165 165 161 153 156 165 164 161 162 162 160 160 159 158 159 161 162 166 176 182 184 184 179 167 160 163 165 147 133 147 152 154 162 171 172 164 152 139 130 112 83 84 106 101 91 78 39 355 346 349 350 352 360 3 359 356 354 351 352 351 346 344 344 347 352 351 347 348 348 345 344
153 154 154 157 159 159 160 162 162 162 163 165 166 164 163 166 164 161 166 172 170 166 165 164 163 164 163 162 162 164 164 166 172 179 182 182 181 176 170 170 172 157 131 143 153 163 173 178 170 160 155 150 142 148 207 200 108 89 82 65 28 0 8 9 353 349 6 5 358 359 356 350 351 350 348 350 353 355 360 356 351 354 354 349 351
157 156 157 158 161 163 162 161 161 160 160 163 164 165 167 170 170 170 173 174 172 169 167 166 169 170 167 166 165 165 166 167 169 174 176 177 178 175 174 176 179 172 153 156 167 175 177 172 163 156 158 166 170 188 210 218 220 268 274 235 71 29 15 13 4 2 9 3 358 0 355 350 353 353 354 0 359 358 4 359 352 356 356 352 356
159 160 160 161 164 166 161 158 158 158 160 164 167 170 174 176 176 179 182 180 177 173 171 173 175 173 169 169 167 167 170 171 171 172 174 174 173 171 173 178 181 182 179 171 167 169 167 161 160 165 176 191 201 204 209 216 225 239 263 263 239 257 301 325 2 21 12 2 2 3 356 353 356 357 1 4 357 354 1 355 347 352 355 351 356
163 162 161 163 165 163 159 159 161 163 167 169 169 172 178 181 183 186 186 184 183 179 175 177 178 174 173 173 171 170 173 175 174 173 172 173 173 172 172 175 180 189 188 173 162 166 172 175 185 198 206 213 217 215 210 210 209 193 175 290 288 297 311 310 10 26 13 1 4 6 358 356 359 357 1 1 350 348 358 354 346 351 354 349 352
165 163 163 166 167 163 163 166 166 168 172 171 164 166 176 182 186 187 185 184 185 183 180 179 178 176 176 174 175 178 179 174 170 171 171 173 175 175 175 177 181 185 181 173 168 175 188 196 203 209 213 213 213 210 201 200 207 195 185 200 237 12 348 9 35 25 4 358 5 6 358 356 356 353 354 353 344 342 352 353 345 347 349 348 350
166 165 165 167 165 164 169 172 168 169 175 175 169 170 174 173 172 177 179 182 185 184 181 180 180 180 175 169 170 178 180 173 169 170 173 176 175 173 177 181 182 176 174 177 184 198 205 208 211 211 211 209 203 203 204 201 202 208 208 192 153 208 231 82 37 350 335 355 359 354 349 350 350 347 345 344 339 338 345 346 342 343 346 346 347
169 169 165 159 157 160 167 170 168 171 178 180 178 179 180 170 148 149 163 175 183 184 179 176 178 177 172 166 165 164 166 169 171 173 176 179 177 173 175 181 184 180 176 182 195 212 211 209 211 212 211 205 197 204 212 206 200 205 207 197 199 216 188 107 40 321 333 348 338 333 339 344 342 338 335 335 334 335 339 340 338 339 342 343 344
172 169 161 154 157 163 166 168 172 177 183 184 182 184 187 184 170 149 146 160 173 177 173 171 171 164 159 166 169 161 157 165 174 177 180 184 183 179 179 182 188 189 182 185 204 227 221 213 212 210 208 206 203 207 211 211 209 208 201 197 202 201 179 168 241 261 306 324 320 324 337 340 337 333 331 333 333 332 334 335 334 336 339 339 338
174 169 159 154 160 167 169 173 179 184 187 188 186 188 192 190 185 173 157 155 164 169 166 165 164 156 153 163 170 165 158 163 174 180 184 187 187 185 183 183 187 192 191 195 216 236 228 219 217 211 207 208 206 202 206 212 211 204 203 210 211 197 187 222 252 275 324 323 319 327 333 332 332 330 329 329 328 328 329 328 330 334 335 333 330
174 169 160 157 165 172 173 177 184 187 189 189 188 189 190 187 185 183 176 171 172 173 170 165 163 160 158 160 167 169 166 168 174 180 184 186 185 182 182 182 187 196 201 207 224 237 228 218 218 215 211 210 206 202 210 216 209 202 205 207 207 209 217 238 257 301 321 316 317 325 325 320 321 323 324 323 323 325 326 325 327 330 327 323 322
164 158 157 161 171 176 177 181 186 188 188 187 186 188 185 180 178 179 178 177 179 180 178 171 169 171 169 166 169 174 172 171 176 178 180 182 181 181 183 186 191 197 202 208 223 235 231 219 216 216 213 210 206 205 210 212 208 207 208 204 211 227 237 252 311 322 322 318 314 311 308 309 317 323 322 320 321 322 322 321 322 321 317 315 314
154 151 156 166 175 179 180 182 184 185 185 183 183 184 182 177 174 174 175 175 177 180 177 168 164 169 174 174 176 177 171 170 176 179 179 182 184 185 189 196 198 199 202 208 216 227 228 218 215 216 212 208 210 211 209 208 209 205 200 214 233 240 245 289 296 288 285 289 295 299 305 314 321 323 321 320 320 319 317 317 317 315 313 312 311
162 159 162 171 177 176 172 174 177 178 178 180 184 184 180 175 172 171 171 169 170 176 176 167 164 170 173 174 179 180 174 172 178 183 185 187 190 192 199 208 210 207 208 211 213 218 220 215 213 216 213 206 210 213 209 209 212 209 207 222 240 248 261 278 280 273 265 269 285 305 317 321 321 322 322 320 318 316 317 317 315 313 313 314 315
168 167 168 172 173 167 164 170 176 172 169 176 186 185 179 176 173 172 171 167 169 177 176 168 171 178 175 169 172 177 175 175 179 185 189 191 194 199 206 216 221 218 215 213 210 210 214 212 207 208 212 209 207 212 213 214 220 223 225 234 249 263 271 279 289 294 293 294 304 314 319 318 319 321 320 317 317 318 318 316 314 315 317 318 319
166 169 170 169 167 163 164 167 165 162 167 179 184 175 177 184 181 176 173 169 172 181 180 172 177 181 173 166 169 173 175 179 182 183 186 189 193 200 207 215 223 222 216 212 206 204 211 216 206 201 209 213 211 215 221 223 227 235 242 252 265 275 280 288 299 305 307 307 309 312 314 318 322 322 319 317 319 318 316 316 319 322 321 319 319
159 166 167 166 165 164 161 157 156 161 174 185 178 166 179 196 192 184 179 174 177 184 183 179 184 182 172 171 177 176 174 179 183 184 185 189 192 198 205 213 220 217 210 212 210 202 206 214 210 204 208 213 215 223 229 233 239 248 255 264 275 283 289 299 308 317 319 314 311 313 318 322 323 321 319 319 320 318 319 323 324 321 319 320 321
161 164 166 169 172 168 158 155 162 170 179 185 178 169 178 193 198 194 185 178 180 186 184 183 184 177 172 178 184 179 174 179 185 185 187 190 194 199 205 211 216 213 206 208 209 205 205 211 214 214 214 212 218 231 240 245 256 266 270 277 285 292 297 306 320 335 338 327 323 325 325 323 322 321 320 321 321 322 324 324 321 320 321 323 323
162 160 162 167 170 165 158 160 166 169 174 181 178 162 162 177 195 205 197 187 184 187 193 193 175 165 170 181 184 178 178 184 187 187 189 191 194 200 205 207 210 210 206 205 205 203 205 208 211 219 228 224 227 238 246 255 269 282 285 290 300 305 304 314 340 351 341 335 335 331 326 326 328 326 323 324 326 326 324 322 322 325 325 324 323
166 164 163 162 162 161 162 164 166 168 173 178 173 159 160 173 184 191 197 199 193 189 201 205 165 155 163 176 178 178 186 191 187 189 193 191 191 199 203 203 206 206 203 204 205 203 205 206 205 211 222 230 241 255 256 263 294 299 286 290 308 326 293 292 317 328 322 327 335 333 330 332 333 329 327 328 330 328 325 326 328 328 325 324 325
168 168 166 164 165 167 168 169 171 174 176 177 172 163 167 177 181 181 187 197 198 198 211 210 160 149 158 169 172 180 195 200 188 190 194 189 189 196 198 197 201 201 198 202 207 207 205 201 197 206 216 221 227 146 204 216 221 248 272 276 271 167 240 279 304 320 320 328 339 339 334 335 335 332 332 333 331 328 327 328 329 327 325 326 325
163 164 164 164 166 169 171 172 173 174 175 176 176 172 171 174 178 183 186 191 202 211 213 185 139 140 153 165 169 180 198 204 192 190 191 186 187 192 192 190 195 198 198 201 202 198 194 190 195 211 219 211 175 146 193 233 248 249 249 252 241 220 238 273 313 333 325 327 339 342 336 335 336 335 333 332 331 329 329 329 328 327 327 325 322
159 160 162 162 163 166 172 176 176 175 175 177 180 182 182 179 178 184 189 195 207 209 194 148 130 141 158 168 172 180 191 198 195 188 185 184 185 187 188 191 194 192 188 187 189 195 201 205 213 224 224 211 187 166 170 220 252 254 248 245 249 257 270 281 304 317 316 325 340 345 339 337 337 334 333 334 333 330 331 330 327 327 327 324 322
156 159 161 163 163 163 170 177 180 178 177 179 181 185 188 185 182 188 194 196 198 194 176 153 155 167 172 176 181 184 188 193 196 190 183 185 188 186 187 190 188 185 186 193 200 209 218 222 226 232 230 216 201 191 188 206 232 247 253 254 259 278 297 305 312 319 326 339 352 352 342 337 338 335 335 335 334 332 331 329 327 327 326 324 323
156 159 161 164 165 163 171 180 182 177 175 178 180 183 185 184 183 188 192 189 186 184 177 174 181 183 179 181 186 186 185 189 192 188 184 187 188 187 187 187 184 188 200 211 216 221 227 230 231 232 228 215 206 202 205 214 227 238 249 262 278 299 317 326 332 336 341 352 3 3 349 340 338 337 335 335 334 333 331 327 326 328 326 323 325
165 165 169 171 169 169 180 187 186 179 176 178 179 180 182 183 182 187 191 190 186 183 180 180 182 183 183 186 189 187 185 187 185 181 180 182 182 184 189 191 192 198 209 217 221 224 228 230 229 227 222 217 213 210 212 219 228 234 246 272 300 318 328 336 341 343 348 359 15 13 355 343 339 339 338 336 335 336 333 330 329 328 325 324 329
176 177 180 183 182 182 188 189 185 180 179 181 181 182 184 183 182 185 191 190 183 178 177 178 178 179 183 188 188 185 184 184 182 178 176 173 176 184 192 194 196 203 212 218 222 225 226 225 223 221 217 213 210 209 211 217 223 228 249 287 316 326 334 342 347 347 352 8 17 1 348 348 350 347 341 335 335 338 337 332 331 329 326 327 333